User: anonymous   Login
Location: Voyageurs National Park
(48.5020°N, 92.9292°W)
Time: 15:07:35
(UTC-05:00)
Language:

Terra - Orbit

View from above orbital plane
View from above orbital plane
View from above satellite
View from above satellite

Ground track
Ground track

The orbit data is extracted from the following two-line orbital elements,

1 25994U 99068A   17262.83174749 -.00000060  00000-0 -32108-5 0  9999
2 25994  98.2026 336.4949 0000977  89.3730 270.7574 14.57115433944451
Epoch (UTC): 19 September 2017 19:57:42
Eccentricity: 0.0000977
inclination: 98.2026°
perigee height: 702 km
apogee height: 703 km
right ascension of ascending node: 336.4949°
argument of perigee: 89.3730°
revolutions per day: 14.57115433
mean anomaly at epoch: 270.7574°
orbit number at epoch: 94445

The dashed part of the orbit path shows where the satellite is in the earth's shadow,  

DLR